Orbital Elements
Epoch 2022 Jan. 21.0 TT = JDT 2459600.5
T 2024 Feb. 14.81628 TT Rudenko
q 1.3184651 (2000.0) P Q
z +0.0002162 Peri. 6.91096 -0.77012174 +0.39968307
+/-0.0000333 Node 215.64740 -0.61846237 -0.65874323
e 0.9997149 Incl. 58.54576 -0.15625878 +0.63742513
From 135 observations 2021 Sept. 24-2022 Apr. 30, mean residual 0".5.
|